Regional Weather Roundup
Issued by NWS

Home | Current Version | Previous Version | Text Only | Print | Product List | Glossary Off
Versions: 1 2 3 4 5 6 7 8 9 10 11 12 13 14 15 16 17 18 19 20 21 22 23 24 25 26 27 28 29 30 31 32 33 34 35 36 37 38 39 40 41 42 43 44 45 46 47 48 49 50

000
ASUS43 KMKX 020721
RWRWI

WISCONSIN REGIONAL WEATHER ROUNDUP
NATIONAL WEATHER SERVICE MILWAUKEE/SULLIVAN WI
200 AM CDT THU APR 02 2015

NOTE: "FAIR" INDICATES FEW OR NO CLOUDS BELOW 12,000 FEET WITH NO
SIGNIFICANT WEATHER AND/OR OBSTRUCTIONS TO VISIBILITY.

WIZ001-002-006>008-014>016-023>028-020800-
NORTHWEST WISCONSIN

CITY           SKY/WX    TMP DP  RH WIND       PRES   REMARKS
SUPERIOR ARPT  CLOUDY    38  35  89 SW8       29.54R WCI  32
ASHLAND        CLOUDY    56  50  80 SW10      29.50R
HAYWARD        CLOUDY    56  51  84 SW9       29.56R
SIREN          CLOUDY    52  43  72 W6        29.59R
CUMBERLAND     CLOUDY    52  46  82 W13       29.58R
RICE LAKE      CLOUDY    55  50  82 SW9       29.60R
CHETEK         CLOUDY    56  53  89 S10       29.60R
LADYSMITH      CLOUDY    55  52  91 SW10      29.59R
EAU CLAIRE     LGT RAIN  56  53  90 SW9       29.61R
MENOMONIE      CLOUDY    57  55  92 S15       29.62R
NEW RICHMOND   CLOUDY    53  45  74 W9        29.63R
OSCEOLA        CLOUDY    54  45  71 W8        29.64R
$$

WIZ003>005-009-010-017-018-020800-
NORTH CENTRAL WISCONSIN

CITY           SKY/WX    TMP DP  RH WIND       PRES   REMARKS
MANITOWISH WTR CLOUDY    51  49  93 SW12      29.53R
ARBOR VITAE    CLOUDY    55  49  81 W14G22    29.55R
WOODRUFF       CLOUDY    55  49  81 W14G22    29.55R
RHINELANDER    LGT RAIN  51  48  89 SW13G20   29.57F
EAGLE RIVER    LGT RAIN  52  46  79 S10G23    29.51F
LAND O LAKES   LGT RAIN  52  45  78 S12G22    29.51F
PHILLIPS       CLOUDY    52  50  92 SW8       29.55R
TOMAHAWK       LGT RAIN  50  48  92 CALM      29.57F
MEDFORD        DRIZZLE   53  49  87 S12       29.60F
MERRILL        LGT RAIN  52  50  94 S6        29.60F
$$

WIZ029-030-035-036-043>047-020800-
CENTRAL WISCONSIN

CITY           SKY/WX    TMP DP  RH WIND       PRES   REMARKS
WAUSAU         LGT RAIN  58  44  60 SW10G22   29.60F
MOSINEE        CLOUDY    59  37  44 W10       29.63F
MARSHFIELD     CLOUDY    52  48  86 S6        29.63F
STEVENS POINT  CLOUDY    60  36  40 SW15      29.64F
WAUPACA        CLOUDY    62  37  39 SW9       29.66R
WAUTOMA        CLOUDY    63  38  39 SW15G22   29.67S
WISC RAPIDS    CLOUDY    61  34  36 SW6       29.65F
CAMP DOUGLAS   CLOUDY    64  39  39 SW14      29.65F
$$

WIZ011>013-019>022-031-037>040-048>050-020800-
NORTHEAST WISCONSIN

CITY           SKY/WX    TMP DP  RH WIND       PRES   REMARKS
ANTIGO         CLOUDY    48  37  65 W5        29.61F
SHAWANO        CLOUDY    62  38  41 S6        29.63R
OCONTO         CLOUDY    59  40  49 SW12G18   29.61S
STURGEON BAY   CLOUDY    46  36  66 S10       29.65S
GREEN BAY      CLOUDY    57  41  55 SW18G28   29.64F
MANITOWOC      MOCLDY    46  38  73 S9        29.68F
APPLETON       CLOUDY    55  37  50 SW17      29.67S
CLINTONVILLE   CLOUDY    59  37  44 SW10      29.65R
OSHKOSH        CLOUDY    57  40  52 S17G29    29.65F
$$

WIZ032>034-041-042-053>061-020800-
SOUTHWEST WISCONSIN

CITY           SKY/WX    TMP DP  RH WIND       PRES   REMARKS
LA CROSSE      CLOUDY    63  46  54 S9        29.62F
SPARTA         CLOUDY    64  38  38 SW6       29.66S
VIROQUA        CLOUDY    58  39  48 S9        29.68F
BOSCOBEL       MOCLDY    62  39  42 S8        29.70R
PRAIRIE DU CHI CLOUDY    62  37  40 S5        29.69F
PLATTEVILLE    PTCLDY    53  40  61 W13       29.75R
$$

WIZ056-057-062-063-064-067-068-020800-
SOUTH CENTRAL WISCONSIN

CITY           SKY/WX    TMP DP  RH WIND       PRES   REMARKS
REEDSBURG      MOCLDY    59  39  47 S16G23    29.69S
BARABOO/DELLS  MOCLDY    59  37  43 SW9       29.71R
LONE ROCK      CLOUDY    60  39  45 SW9       29.73R
MINERAL POINT  MOCLDY    55  36  47 W9        29.76R
MADISON        PTCLDY    57  39  51 S12       29.70F
MIDDLETON      PTCLDY    58  37  45 S16       29.70F
WATERTOWN      MOCLDY    55  40  56 S10       29.72F
MONROE         PTCLDY    54  41  62 S16       29.71F
JANESVILLE     PTCLDY    57  37  47 S13       29.74F
$$

WIZ051-052-058>065-066-070>072-020800-
SOUTHEAST WISCONSIN

CITY           SKY/WX    TMP DP  RH WIND       PRES   REMARKS
MILWAUKEE      MOCLDY    57  37  47 S9        29.76S
WAUKESHA       PTCLDY    55  36  47 S13G21    29.76S
MILWAUKEE/TIMM PTCLDY    59  34  38 S15       29.76S
RACINE         PTCLDY    59  36  42 S7        29.78S
BURLINGTON     PTCLDY    55  37  49 S12       29.77R
KENOSHA        PTCLDY    59  37  44 S16       29.77S
FOND DU LAC    MOCLDY    58  39  49 S18G36    29.67F
SHEBOYGAN      PTCLDY    57  39  51 S18       29.71F
WEST BEND      MOCLDY    59  34  38 S12G22    29.72F
JUNEAU         MOCLDY    55  39  54 S14       29.72F
$$

LSZ147-162-020800-
LAKE SUPERIOR

STATION/POSITION TIME  TEMP    WIND        PRES    WAVE
                       AIR SEA DIR/SP/G            HT/PER
                 (UTC) (F)     (DEG/KT/KT) (MB)    (FT/S)
DEVILS ISLAND    0700   36     240/ 14/ 15  998.7R
PORT WING        0640   42     210/  9/ 12  999.7R
SAXON HARBOR     0700   60     210/  9/ 21  998.3R
$$

LMZ867-665-643>646-020800-
LAKE MICHIGAN

STATION/POSITION TIME  TEMP    WIND        PRES    WAVE
                       AIR SEA DIR/SP/G            HT/PER
                 (UTC) (F)     (DEG/KT/KT) (MB)    (FT/S)
NORTHPORT PIER   0600   48     160/  8/ 14 1003.4F
KEWAUNEE LAKESHO 0600   42     180/ 13/ 15 1004.3F
SHEBOYGAN LAKESH 0700   49     200/ 18/ 19 1006.6F
PORT WASHINGTON  0640   45     190/  7/ 10 1007.8F
MILWAUKEE LAKESH 0700   57     200/ 11/ 13   N/A
KENOSHA   LAKESH 0700   45     170/ 13/ 15 1008.5S
$$

TC  - TEMPERATURE IN CELSIUS
VSB - VISIBILITY IN STATUTE MILES
WCI - WIND CHILL INDEX
HX  - HEAT INDEX




USA.gov is the U.S. government's official web portal to all federal, state and local government web resources and services.